Temp
-7 -8 -6 -6 -7 -7 -6 -6 -7 -7 -7 -7 -7 -6 -5 -5 -6 -6 -5 -5 -5 -5 -5 -6 -6 -6 -6 -6 -6 -6 -6 -7 -7 -6 -5 -6 -5 -5 -6 -6 -6 -5 -6 -6 -5 -6 -6 -6 -6
-7 -7 -6 -6 -7 -7 -8 -7 -7 -7 -7 -7 -7 -6 -5 -5 -6 -6 -6 -6 -6 -5 -5 -6 -6 -6 -6 -6 -6 -6 -6 -7 -7 -6 -6 -6 -5 -6 -6 -6 -6 -5 -6 -5 -6 -6 -6 -6 -6
-7 -6 -6 -7 -7 -7 -7 -8 -7 -8 -7 -7 -7 -7 -6 -5 -5 -6 -6 -6 -6 -5 -5 -6 -7 -6 -6 -6 -6 -6 -6 -7 -7 -7 -6 -6 -6 -6 -6 -6 -6 -6 -5 -5 -6 -6 -6 -6 -6
-6 -6 -7 -6 -6 -6 -7 -8 -8 -7 -7 -7 -6 -6 -6 -5 -5 -6 -7 -6 -6 -5 -6 -6 -6 -6 -7 -6 -6 -6 -6 -6 -7 -7 -7 -6 -7 -7 -7 -6 -6 -5 -5 -6 -6 -6 -6 -6 -6
-6 -6 -6 -6 -6 -6 -7 -7 -8 -8 -7 -7 -6 -7 -6 -6 -6 -6 -6 -6 -6 -6 -6 -6 -6 -7 -7 -6 -7 -7 -6 -6 -7 -7 -7 -6 -7 -7 -7 -6 -6 -6 -6 -6 -6 -6 -6 -6 -6
-7 -6 -5 -6 -8 -7 -7 -7 -7 -8 -7 -7 -6 -7 -6 -6 -6 -6 -6 -6 -6 -6 -6 -6 -6 -6 -7 -6 -7 -6 -6 -6 -7 -7 -7 -7 -7 -7 -7 -6 -6 -6 -6 -6 -6 -6 -6 -6 -6
-8 -7 -7 -7 -8 -8 -8 -7 -7 -7 -7 -7 -7 -6 -6 -6 -6 -7 -6 -6 -6 -6 -6 -6 -7 -7 -7 -8 -7 -7 -7 -6 -7 -8 -8 -7 -7 -7 -7 -7 -6 -6 -6 -6 -6 -6 -6 -6 -6
-5 -5 -5 -7 -8 -8 -8 -7 -7 -7 -8 -7 -7 -7 -7 -7 -7 -7 -7 -7 -6 -6 -6 -6 -8 -8 -8 -8 -7 -8 -7 -7 -7 -7 -8 -8 -8 -7 -7 -7 -7 -7 -6 -6 -6 -6 -6 -6 -6
-5 -5 -6 -8 -9 -8 -8 -7 -7 -7 -8 -7 -7 -7 -7 -7 -7 -7 -7 -7 -7 -7 -7 -7 -8 -8 -8 -8 -8 -8 -8 -8 -7 -7 -8 -8 -8 -8 -8 -7 -7 -7 -7 -6 -6 -6 -6 -6 -6
-4 -5 -6 -6 -8 -8 -8 -7 -7 -7 -8 -7 -7 -7 -7 -7 -7 -7 -7 -7 -7 -7 -7 -8 -8 -8 -8 -8 -8 -8 -8 -8 -8 -7 -9 -9 -9 -9 -8 -8 -8 -7 -7 -7 -7 -6 -6 -6 -6
-4 -5 -6 -7 -7 -7 -7 -6 -7 -7 -8 -8 -7 -8 -8 -7 -7 -8 -8 -7 -7 -8 -7 -8 -8 -8 -8 -8 -8 -8 -8 -8 -8 -7 -8 -8 -8 -8 -9 -8 -8 -8 -7 -7 -7 -7 -7 -6 -6
-5 -5 -6 -6 -7 -7 -6 -6 -7 -7 -7 -8 -7 -8 -8 -8 -8 -8 -8 -8 -7 -8 -8 -8 -8 -8 -9 -9 -9 -8 -9 -9 -8 -8 -8 -8 -8 -8 -9 -9 -9 -8 -8 -7 -7 -7 -7 -7 -6
-6 -6 -7 -6 -6 -6 -6 -7 -7 -7 -7 -8 -8 -7 -8 -8 -9 -8 -8 -8 -8 -8 -8 -8 -8 -8 -8 -8 -8 -9 -9 -9 -9 -9 -9 -9 -9 -8 -8 -9 -9 -9 -9 -9 -8 -7 -7 -7 -6
-6 -7 -7 -6 -6 -6 -7 -7 -6 -7 -7 -7 -7 -8 -8 -8 -8 -9 -8 -8 -8 -8 -9 -9 -9 -9 -9 -9 -9 -8 -9 -9 -9 -9 -9 -9 -8 -8 -8 -9 -9 -9 -10 -10 -9 -8 -7 -7 -7
-6 -7 -7 -6 -5 -5 -6 -6 -7 -7 -7 -7 -7 -7 -8 -8 -8 -9 -9 -8 -9 -8 -9 -9 -9 -9 -9 -9 -9 -9 -9 -9 -9 -9 -9 -9 -9 -9 -8 -8 -9 -9 -10 -9 -8 -8 -8 -8 -7
-6 -6 -7 -7 -6 -6 -7 -6 -7 -7 -8 -7 -7 -7 -7 -8 -8 -8 -9 -9 -9 -9 -9 -10 -9 -9 -9 -9 -9 -9 -9 -9 -9 -9 -9 -9 -9 -9 -9 -8 -9 -9 -9 -9 -9 -8 -8 -8 -8
-7 -7 -6 -7 -7 -7 -7 -6 -7 -7 -8 -7 -7 -7 -6 -7 -8 -8 -8 -9 -9 -9 -9 -9 -10 -10 -10 -10 -10 -9 -9 -9 -9 -9 -9 -9 -9 -9 -9 -9 -9 -9 -9 -9 -9 -9 -9 -9 -8
-7 -7 -7 -7 -8 -8 -7 -6 -6 -7 -7 -8 -8 -7 -7 -7 -7 -8 -8 -8 -9 -9 -9 -9 -9 -10 -10 -10 -10 -10 -10 -10 -10 -10 -10 -9 -10 -10 -10 -9 -9 -9 -9 -9 -9 -9 -9 -8 -8
-7 -7 -7 -8 -8 -7 -7 -6 -6 -7 -7 -7 -8 -8 -8 -8 -8 -7 -7 -8 -8 -8 -9 -9 -9 -10 -10 -10 -10 -10 -10 -10 -10 -10 -10 -10 -10 -10 -10 -9 -10 -10 -9 -9 -9 -9 -9 -9 -9
-7 -7 -7 -8 -8 -8 -8 -7 -6 -7 -6 -7 -8 -8 -8 -8 -7 -7 -7 -7 -7 -8 -8 -9 -9 -10 -10 -10 -10 -10 -10 -10 -9 -10 -10 -10 -9 -9 -10 -10 -9 -9 -9 -9 -10 -9 -9 -9 -9
-6 -7 -8 -7 -8 -8 -8 -8 -7 -7 -6 -7 -7 -8 -8 -8 -8 -7 -7 -7 -7 -7 -8 -8 -9 -9 -9 -10 -10 -10 -10 -10 -10 -10 -10 -10 -10 -9 -9 -9 -9 -10 -10 -10 -9 -10 -9 -9 -9
-6 -6 -7 -7 -7 -8 -8 -8 -8 -8 -7 -7 -7 -8 -8 -8 -8 -8 -8 -9 -8 -8 -8 -8 -9 -9 -9 -9 -9 -9 -9 -9 -9 -9 -9 -10 -10 -10 -10 -10 -10 -10 -10 -10 -10 -9 -9 -8 -8
-6 -7 -7 -7 -7 -7 -7 -8 -8 -8 -7 -7 -7 -8 -7 -7 -8 -9 -9 -9 -9 -8 -8 -8 -8 -9 -9 -9 -9 -9 -9 -9 -9 -9 -9 -9 -9 -10 -10 -10 -10 -10 -10 -10 -10 -9 -9 -9 -8
-7 -6 -6 -6 -6 -6 -7 -7 -7 -7 -7 -7 -7 -7 -7 -7 -8 -9 -9 -9 -9 -8 -7 -7 -7 -8 -8 -8 -8 -8 -8 -8 -8 -9 -9 -9 -9 -9 -10 -10 -10 -10 -9 -9 -10 -10 -9 -10 -9
-7 -7 -7 -7 -7 -7 -7 -7 -6 -7 -7 -7 -8 -8 -7 -8 -8 -8 -8 -8 -8 -8 -8 -8 -7 -7 -7 -7 -7 -7 -7 -8 -8 -8 -8 -9 -9 -10 -9 -9 -10 -9 -9 -9 -9 -9 -9 -9 -10
-7 -7 -7 -7 -8 -7 -7 -7 -7 -7 -7 -7 -8 -8 -8 -8 -8 -8 -8 -8 -8 -8 -8 -8 -9 -9 -8 -7 -7 -7 -7 -7 -7 -7 -7 -8 -8 -8 -9 -9 -9 -9 -9 -9 -9 -8 -9 -9 -9
-7 -7 -6 -7 -7 -7 -7 -7 -7 -7 -7 -7 -8 -9 -9 -9 -8 -8 -7 -8 -8 -8 -8 -8 -7 -7 -8 -9 -8 -8 -8 -8 -8 -8 -8 -8 -8 -8 -8 -8 -9 -9 -9 -9 -9 -9 -9 -9 -10
-7 -7 -7 -7 -7 -7 -7 -7 -7 -7 -7 -8 -9 -9 -9 -8 -8 -7 -7 -8 -8 -8 -8 -8 -8 -8 -8 -7 -7 -8 -8 -8 -8 -8 -8 -8 -9 -8 -8 -8 -8 -8 -9 -9 -9 -9 -10 -9 -10
-8 -7 -7 -7 -7 -7 -7 -7 -7 -7 -7 -8 -8 -8 -8 -8 -7 -7 -7 -8 -8 -8 -9 -9 -8 -8 -8 -8 -8 -8 -8 -8 -8 -8 -8 -8 -8 -8 -8 -8 -8 -8 -9 -9 -9 -8 -9 -10 -9
-8 -7 -7 -7 -7 -7 -8 -8 -8 -8 -8 -9 -8 -8 -8 -8 -8 -8 -9 -9 -9 -9 -9 -9 -9 -9 -8 -9 -9 -8 -8 -8 -8 -8 -8 -8 -8 -8 -8 -8 -8 -8 -9 -9 -9 -9 -9 -9 -9
Height
5901 5900 5899 5899 5900 5897 5894 5892 5889 5889 5887 5881 5881 5883 5881 5880 5879 5881 5880 5879 5879 5881 5880 5881 5881 5883 5884 5887 5889 5890 5891 5896 5898 5901 5900 5909 5909 5910 5913 5915 5916 5917 5920 5922 5924 5926 5925 5924 5924
5905 5903 5904 5900 5899 5899 5896 5894 5896 5893 5889 5887 5887 5884 5881 5880 5879 5879 5880 5879 5880 5881 5881 5881 5882 5884 5886 5888 5889 5891 5892 5897 5900 5902 5904 5910 5911 5911 5915 5918 5918 5917 5922 5924 5926 5929 5929 5928 5927
5905 5909 5905 5902 5903 5901 5899 5898 5899 5895 5894 5892 5891 5889 5886 5883 5881 5880 5881 5881 5882 5882 5882 5881 5883 5884 5885 5887 5889 5892 5894 5897 5901 5903 5904 5909 5912 5914 5916 5920 5919 5919 5923 5926 5928 5929 5930 5930 5930
5909 5910 5907 5906 5906 5903 5902 5901 5899 5898 5898 5896 5894 5894 5890 5886 5883 5883 5883 5884 5883 5883 5882 5881 5882 5884 5886 5887 5889 5891 5895 5897 5899 5902 5907 5910 5913 5915 5917 5920 5920 5922 5924 5926 5929 5931 5932 5932 5932
5910 5910 5907 5907 5907 5906 5904 5903 5902 5901 5901 5898 5897 5896 5895 5890 5886 5886 5887 5885 5885 5883 5882 5882 5883 5883 5886 5887 5890 5892 5894 5896 5899 5900 5909 5912 5913 5915 5918 5920 5921 5922 5925 5927 5929 5931 5933 5933 5934
5910 5912 5912 5909 5907 5907 5907 5905 5905 5905 5904 5901 5901 5899 5898 5892 5888 5888 5888 5887 5885 5885 5883 5884 5883 5885 5886 5887 5890 5893 5895 5897 5898 5902 5907 5910 5913 5917 5920 5921 5921 5923 5925 5928 5929 5932 5934 5934 5935
5915 5913 5911 5908 5907 5907 5907 5906 5907 5906 5906 5904 5903 5901 5899 5895 5892 5891 5890 5887 5886 5887 5887 5885 5884 5885 5888 5889 5891 5894 5897 5898 5898 5903 5907 5910 5915 5918 5922 5922 5922 5924 5926 5928 5930 5932 5934 5936 5935
5916 5914 5911 5908 5908 5908 5909 5908 5907 5909 5908 5907 5904 5903 5901 5900 5897 5895 5893 5890 5888 5886 5886 5885 5884 5887 5888 5890 5893 5895 5897 5899 5899 5903 5905 5912 5916 5919 5921 5922 5924 5924 5926 5928 5930 5932 5934 5937 5937
5918 5914 5911 5910 5908 5910 5910 5909 5909 5911 5911 5910 5905 5904 5904 5903 5901 5899 5897 5894 5892 5889 5888 5887 5887 5888 5890 5892 5895 5896 5899 5900 5902 5903 5907 5911 5915 5918 5920 5921 5923 5924 5927 5929 5931 5932 5933 5936 5937
5917 5914 5912 5911 5911 5911 5910 5911 5912 5914 5914 5913 5911 5907 5906 5905 5904 5902 5901 5899 5895 5894 5893 5892 5889 5889 5891 5894 5896 5898 5900 5902 5904 5905 5907 5910 5913 5917 5920 5921 5922 5924 5927 5929 5931 5932 5933 5935 5937
5916 5912 5913 5913 5915 5913 5912 5914 5915 5916 5915 5915 5913 5911 5908 5907 5906 5905 5904 5904 5901 5898 5897 5896 5893 5891 5894 5896 5897 5900 5901 5902 5905 5907 5908 5909 5911 5914 5918 5920 5922 5924 5926 5929 5931 5932 5933 5935 5937
5918 5915 5912 5914 5916 5917 5913 5915 5917 5915 5916 5916 5915 5914 5910 5909 5908 5907 5906 5906 5905 5903 5901 5899 5898 5898 5898 5899 5900 5900 5901 5904 5906 5906 5908 5909 5910 5912 5916 5919 5921 5922 5924 5927 5930 5931 5933 5934 5936
5918 5916 5917 5918 5917 5918 5914 5918 5918 5918 5917 5917 5915 5915 5912 5910 5909 5908 5908 5908 5907 5906 5905 5903 5902 5902 5902 5901 5900 5900 5901 5905 5907 5907 5908 5910 5910 5912 5913 5915 5918 5921 5923 5924 5928 5929 5931 5933 5934
5919 5918 5919 5919 5919 5918 5920 5919 5920 5920 5918 5917 5917 5915 5913 5911 5910 5909 5910 5910 5909 5908 5907 5906 5905 5905 5904 5904 5904 5904 5906 5906 5908 5909 5909 5910 5910 5911 5913 5914 5915 5917 5920 5921 5925 5927 5928 5930 5931
5919 5918 5918 5918 5918 5918 5918 5921 5920 5920 5919 5918 5917 5915 5913 5912 5911 5911 5910 5911 5911 5909 5909 5909 5908 5907 5907 5907 5907 5907 5907 5908 5908 5909 5909 5910 5911 5911 5910 5913 5912 5916 5919 5921 5923 5924 5925 5927 5929
5919 5920 5920 5919 5917 5918 5918 5920 5921 5920 5920 5919 5918 5917 5915 5913 5912 5911 5911 5909 5912 5912 5911 5910 5910 5910 5910 5911 5911 5911 5910 5910 5911 5911 5911 5912 5911 5912 5912 5911 5911 5912 5915 5918 5920 5922 5923 5924 5926
5920 5920 5920 5919 5918 5918 5919 5919 5920 5920 5920 5920 5919 5918 5917 5916 5915 5914 5915 5914 5911 5912 5912 5911 5912 5913 5913 5913 5913 5914 5913 5914 5913 5912 5913 5914 5914 5914 5913 5913 5911 5912 5913 5912 5914 5917 5919 5920 5922
5919 5919 5919 5917 5918 5917 5919 5918 5919 5919 5921 5921 5919 5919 5920 5918 5917 5917 5915 5915 5914 5913 5913 5912 5912 5913 5913 5914 5915 5915 5915 5915 5915 5914 5915 5915 5915 5914 5913 5913 5912 5912 5912 5911 5911 5914 5915 5915 5918
5917 5915 5916 5917 5917 5917 5917 5917 5918 5919 5919 5919 5920 5921 5921 5919 5919 5917 5917 5916 5914 5913 5914 5914 5914 5913 5914 5914 5915 5915 5914 5914 5914 5914 5914 5914 5913 5913 5913 5913 5911 5910 5911 5909 5910 5910 5911 5911 5914
5915 5915 5914 5916 5915 5916 5915 5914 5916 5917 5918 5918 5920 5921 5921 5920 5918 5915 5914 5913 5913 5912 5912 5913 5913 5913 5913 5913 5913 5913 5913 5912 5911 5912 5913 5913 5911 5910 5910 5910 5910 5909 5907 5906 5905 5906 5906 5907 5908
5915 5915 5915 5916 5916 5915 5915 5913 5914 5917 5917 5918 5920 5921 5921 5919 5916 5913 5912 5911 5911 5911 5910 5909 5909 5910 5910 5910 5910 5909 5909 5909 5909 5909 5908 5908 5908 5907 5907 5906 5905 5904 5903 5901 5901 5900 5901 5902 5902
5912 5913 5913 5914 5915 5916 5914 5911 5912 5914 5916 5918 5918 5918 5919 5917 5916 5913 5910 5908 5908 5908 5908 5907 5907 5907 5907 5906 5906 5905 5905 5905 5904 5905 5903 5903 5903 5903 5902 5901 5901 5900 5899 5898 5897 5896 5894 5893 5895
5910 5910 5910 5910 5911 5912 5913 5911 5909 5911 5913 5915 5916 5915 5915 5915 5914 5913 5910 5909 5907 5907 5906 5905 5905 5904 5903 5902 5901 5900 5902 5900 5900 5899 5897 5897 5896 5896 5895 5895 5894 5894 5892 5892 5891 5890 5889 5888 5888
5908 5910 5910 5909 5910 5911 5909 5908 5907 5908 5911 5912 5912 5912 5913 5912 5911 5911 5911 5910 5908 5904 5902 5902 5901 5900 5900 5898 5897 5895 5895 5895 5893 5891 5890 5890 5891 5890 5889 5888 5887 5888 5887 5887 5885 5884 5884 5882 5882
5906 5906 5906 5907 5908 5909 5906 5905 5906 5907 5907 5908 5908 5908 5907 5908 5909 5909 5908 5908 5905 5901 5899 5898 5896 5894 5893 5891 5891 5890 5889 5887 5886 5885 5884 5883 5882 5882 5882 5881 5880 5880 5879 5879 5880 5879 5877 5875 5875
5903 5904 5904 5903 5904 5906 5904 5903 5904 5905 5904 5904 5904 5905 5906 5906 5906 5905 5905 5902 5900 5898 5895 5891 5889 5887 5886 5885 5885 5883 5881 5881 5880 5879 5877 5877 5875 5874 5873 5872 5871 5870 5869 5868 5867 5866 5865 5866 5867
5900 5901 5901 5900 5899 5899 5900 5900 5900 5901 5900 5900 5900 5901 5901 5902 5902 5901 5899 5897 5896 5894 5891 5888 5886 5884 5882 5879 5877 5876 5874 5873 5871 5870 5869 5868 5866 5865 5862 5861 5860 5860 5859 5858 5858 5856 5854 5857 5857
5896 5898 5897 5896 5895 5895 5894 5894 5895 5897 5897 5897 5897 5897 5896 5897 5897 5896 5895 5892 5890 5887 5883 5880 5878 5877 5876 5874 5872 5869 5866 5862 5860 5858 5857 5855 5854 5852 5851 5849 5847 5847 5846 5845 5844 5845 5844 5843 5845
5891 5891 5891 5892 5891 5891 5891 5889 5889 5891 5891 5891 5891 5890 5890 5889 5889 5889 5887 5886 5885 5881 5877 5873 5870 5867 5864 5863 5861 5860 5857 5854 5852 5849 5846 5843 5840 5839 5837 5835 5834 5833 5832 5832 5833 5834 5835 5838 5834
5886 5886 5887 5886 5888 5886 5886 5887 5884 5885 5885 5885 5885 5884 5883 5882 5881 5880 5879 5877 5875 5872 5869 5865 5862 5859 5858 5855 5852 5849 5845 5841 5839 5837 5834 5830 5827 5824 5822 5820 5819 5819 5817 5817 5818 5821 5823 5826 5830
Wind_Speed
12 15 21 25 21 30 28 26 28 30 29 35 34 31 22 17 10 5 5 4 6 4 2 5 6 7 9 15 19 21 26 24 24 22 21 16 18 19 19 18 19 18 15 14 14 13 15 17 16
3 11 18 32 32 19 32 30 25 26 28 30 30 31 24 19 9 6 6 6 5 4 3 3 7 13 18 20 19 17 26 24 21 21 20 16 16 19 18 16 17 17 15 14 13 12 12 14 15
20 10 18 23 25 25 26 27 26 29 27 26 27 29 21 16 15 13 10 6 3 3 4 4 6 8 14 19 17 20 22 25 23 21 21 19 18 19 17 15 16 17 15 13 12 12 11 12 14
15 19 24 21 22 24 26 26 28 29 26 21 25 27 23 18 22 17 13 8 6 8 9 3 5 11 13 14 23 26 25 28 26 23 20 21 19 18 18 16 16 15 14 13 11 11 10 10 11
13 17 22 22 23 26 25 24 24 26 26 24 24 27 25 22 24 20 15 10 10 12 11 6 5 11 11 15 24 25 28 25 25 23 20 19 18 18 17 16 16 14 13 13 12 11 9 9 9
12 9 14 22 22 23 24 22 22 23 25 23 20 22 25 28 25 21 16 14 13 12 10 3 5 10 14 15 15 24 19 23 21 26 24 20 17 14 14 15 13 13 14 13 12 11 9 8 7
12 14 15 19 20 19 19 22 24 23 23 23 20 19 23 28 29 25 20 18 15 14 13 4 9 11 14 11 13 11 11 17 27 29 26 17 15 14 12 12 13 12 13 13 13 12 10 7 7
7 8 11 16 16 16 15 22 23 24 21 20 21 20 18 23 27 26 23 21 18 18 16 17 10 14 14 16 12 7 5 14 26 32 25 16 16 15 13 12 12 12 13 13 13 12 11 9 6
2 10 17 16 12 12 14 18 20 23 18 19 20 19 17 19 22 23 24 23 21 20 17 17 10 10 14 12 11 11 7 9 24 30 26 24 22 15 14 13 12 12 13 12 12 12 11 11 8
2 13 16 16 13 10 10 15 18 19 16 17 17 16 17 16 18 19 22 23 25 23 20 17 17 13 12 13 12 10 6 12 20 22 22 18 19 15 14 13 12 12 13 13 13 13 13 12 11
3 9 12 12 10 7 9 11 14 17 16 14 17 14 15 17 17 16 18 20 22 26 22 19 21 19 12 10 8 8 7 7 9 12 22 16 19 19 11 12 12 12 12 13 14 14 14 12 12
6 6 12 8 9 5 8 10 13 18 17 10 16 14 14 16 18 18 17 18 20 23 26 23 20 19 19 16 10 10 11 8 6 5 5 15 12 17 15 14 15 11 14 14 13 13 14 13 14
4 6 3 3 6 7 9 6 10 15 19 15 14 14 15 16 16 16 16 18 19 20 24 27 25 21 17 15 18 15 13 9 7 2 9 11 17 14 18 21 14 16 15 15 13 14 13 14 14
2 3 2 1 2 7 8 4 7 17 15 19 20 14 13 14 14 12 14 15 17 18 20 22 25 26 22 19 17 16 13 6 5 3 2 3 8 14 12 23 25 18 14 16 16 16 15 15 14
1 8 1 4 1 6 11 8 14 15 22 23 22 20 15 12 12 9 10 11 12 14 16 17 20 21 22 21 19 16 14 12 11 8 8 6 8 7 12 14 20 28 17 17 17 17 16 16 15
3 8 2 5 7 8 13 11 13 15 21 22 22 19 15 10 8 8 6 8 7 7 9 11 13 16 16 16 18 18 17 15 13 11 8 7 9 11 9 11 18 22 22 19 19 18 19 18 18
0 5 7 0 9 12 15 10 10 13 19 21 24 20 15 12 11 12 7 4 7 4 4 5 7 8 11 12 12 12 13 13 14 14 12 8 9 10 12 13 8 22 25 29 25 22 19 18 17
8 10 3 3 7 9 12 12 9 10 17 19 22 25 23 19 17 13 10 5 3 5 6 7 3 1 2 5 6 6 6 8 10 9 10 11 8 7 11 11 13 12 14 17 29 24 22 20 19
15 17 7 3 5 10 16 10 5 3 12 16 18 19 22 19 15 14 11 10 5 4 7 8 9 6 7 5 4 3 4 5 5 6 6 6 8 9 8 7 8 11 14 14 18 27 24 24 23
16 14 10 9 12 12 16 15 9 1 7 11 16 18 19 20 17 12 13 11 7 4 3 5 8 9 10 11 9 8 9 10 9 12 12 12 10 10 11 11 12 9 10 12 14 21 21 25 32
14 17 17 16 13 11 17 14 12 6 3 3 7 11 17 19 19 16 16 18 14 9 5 4 6 10 12 15 14 15 15 15 17 17 14 17 17 14 15 16 13 14 12 14 14 16 24 28 26
4 9 13 18 19 16 17 20 20 14 7 4 6 10 16 18 19 22 23 26 22 15 11 6 6 9 12 14 18 19 16 14 17 20 21 21 23 22 20 19 19 17 16 17 19 18 19 28 31
6 12 11 13 16 19 22 22 21 18 13 11 9 11 17 17 20 23 24 26 26 18 13 13 11 9 12 15 19 20 15 21 17 21 19 21 22 25 26 27 25 21 23 24 22 21 20 22 31
9 8 10 14 13 13 18 21 21 22 17 16 11 13 17 19 22 23 22 24 22 19 19 17 19 16 16 17 19 21 22 24 24 25 26 23 24 25 30 30 31 30 30 29 28 27 24 24 24
11 11 13 16 13 12 18 21 21 18 15 16 13 18 21 23 22 22 23 22 17 19 19 21 22 22 22 23 23 24 26 27 28 29 30 32 33 32 28 31 36 38 36 33 34 34 32 26 27
13 9 12 17 20 18 23 27 26 23 22 19 17 20 21 24 24 21 26 23 20 20 22 23 21 22 27 26 27 29 31 31 31 32 34 36 38 39 38 37 35 35 39 42 39 41 41 38 30
15 14 13 17 18 19 20 23 24 22 25 26 25 23 25 26 28 27 27 23 22 22 23 23 24 23 23 28 33 34 35 36 37 39 39 40 40 41 43 44 43 38 38 42 47 48 50 43 34
15 12 13 14 16 18 23 25 26 25 27 25 22 25 30 32 31 31 25 23 22 24 26 28 29 27 27 28 31 32 36 41 42 43 43 44 46 47 48 48 47 45 42 42 45 51 51 44 35
20 16 15 15 18 16 18 25 26 25 26 27 29 32 35 38 37 29 27 27 25 26 29 32 33 34 35 36 37 38 39 41 42 43 46 48 50 49 49 50 49 48 47 46 45 49 53 49 46
23 25 21 23 20 20 18 21 25 27 29 32 34 38 39 37 36 36 37 39 36 36 33 35 38 38 39 41 42 42 44 47 47 47 47 50 51 52 52 52 51 50 49 48 47 48 52 55 51
Wind_Direction
59 89 65 61 81 72 57 58 57 49 40 41 27 15 19 18 29 43 41 22 38 16 263 205 200 145 154 174 178 154 152 158 156 157 146 157 149 142 145 147 145 133 131 130 129 127 117 103 98
159 70 67 65 65 67 48 53 53 54 43 44 30 19 17 20 37 92 60 41 7 359 60 130 164 174 174 181 176 182 167 156 156 151 143 157 149 139 148 146 144 132 138 138 132 137 122 110 100
104 110 74 74 72 79 60 59 51 47 42 41 38 24 24 35 57 68 53 47 2 38 46 124 151 172 172 189 207 177 173 161 158 154 150 156 154 151 149 155 140 135 143 144 146 149 135 115 103
95 86 75 71 69 69 73 67 51 42 36 36 48 32 39 56 61 61 60 54 38 59 62 94 151 168 170 199 207 182 186 176 169 158 163 163 159 156 155 152 142 141 146 151 159 156 147 127 112
103 81 72 65 54 65 68 63 57 40 31 33 51 45 45 60 67 59 55 56 54 60 75 89 134 165 166 176 194 199 192 180 172 156 169 167 164 162 164 162 157 148 158 163 167 166 159 147 118
87 71 64 61 48 43 55 62 55 47 34 28 46 53 48 54 63 55 54 60 64 64 67 114 154 171 160 146 173 203 194 204 184 171 175 165 162 168 169 170 168 164 161 174 171 174 170 164 133
130 92 68 50 41 26 37 40 56 50 36 27 34 55 52 52 55 53 51 52 57 69 68 66 164 160 162 128 139 151 205 216 187 186 169 160 169 176 181 174 173 174 175 177 177 179 180 176 155
117 103 75 52 41 15 15 25 31 42 41 28 27 47 56 56 56 52 55 53 51 58 63 51 140 147 148 139 165 160 165 245 217 184 157 168 178 183 186 182 188 182 187 187 184 192 190 183 192
168 79 73 68 37 13 8 13 19 35 44 38 28 31 50 59 55 54 52 55 56 54 57 62 130 139 143 137 130 130 146 205 207 168 168 185 187 189 188 190 194 195 201 197 195 199 203 195 207
52 80 69 65 41 356 355 2 10 32 42 39 38 29 40 55 55 51 53 53 58 59 59 69 75 150 139 127 127 128 163 214 190 196 179 180 186 191 199 195 200 203 205 208 209 207 212 205 212
25 79 78 65 61 1 330 10 22 42 44 26 44 33 39 43 51 49 50 56 59 60 60 64 73 96 118 131 134 134 143 173 204 213 216 203 201 187 207 208 210 214 213 219 218 218 220 214 217
359 48 58 70 72 38 333 20 45 35 42 22 39 48 37 40 40 46 44 55 66 65 62 63 69 85 93 91 105 148 145 171 200 261 295 235 219 210 204 218 221 224 224 222 226 227 226 224 223
336 55 73 64 97 87 359 36 40 24 31 34 41 49 48 42 39 34 40 35 50 66 66 64 62 66 71 76 67 71 142 156 78 359 275 252 275 256 226 201 215 226 229 225 230 236 234 234 231
182 167 83 249 154 79 74 358 24 30 38 40 40 39 32 43 43 28 29 32 33 48 64 64 64 58 59 60 61 70 82 122 209 76 70 283 279 261 267 234 212 207 224 240 235 235 236 235 236
126 175 101 27 139 70 47 61 38 43 47 39 37 39 44 32 38 30 13 32 32 35 45 61 62 60 56 56 59 61 61 54 47 25 1 349 337 325 237 248 247 230 211 231 238 238 237 244 241
169 177 93 4 35 32 21 23 51 59 42 35 35 36 45 41 31 33 16 355 35 30 35 50 49 52 55 55 58 57 59 54 40 20 5 341 337 343 348 250 225 212 215 220 231 236 240 241 244
191 189 221 324 31 16 354 349 3 63 44 32 33 38 44 44 39 35 22 346 341 350 345 31 57 56 49 48 53 62 64 46 44 33 21 15 356 353 2 351 314 241 236 223 220 224 232 241 246
241 260 237 11 13 0 341 327 10 64 47 40 47 47 39 42 44 39 31 31 289 289 269 298 313 289 58 42 35 37 42 27 27 30 16 6 7 356 348 345 335 322 297 270 237 232 232 234 238
252 261 245 299 289 318 331 306 353 81 54 52 49 22 11 27 22 16 34 23 6 315 267 269 286 291 295 281 274 300 331 331 328 339 336 322 328 326 327 331 329 318 300 296 271 235 234 232 237
235 239 241 247 284 314 308 297 328 98 66 71 33 22 8 13 29 20 17 17 29 355 303 282 264 263 276 289 295 291 277 281 307 296 289 291 287 290 287 305 301 302 304 299 291 266 265 259 247
236 221 235 250 259 278 279 286 302 312 224 353 33 6 357 15 24 26 19 16 6 345 331 341 294 268 261 265 274 284 279 264 254 248 279 276 277 278 276 280 294 282 289 300 297 283 259 250 255
206 215 243 250 254 240 264 280 281 293 268 296 343 351 341 10 25 17 12 360 359 349 330 318 289 277 280 284 279 288 279 279 262 271 264 253 271 269 277 270 268 274 271 275 287 284 268 250 243
212 213 233 232 223 225 239 253 269 269 275 293 305 325 336 0 1 0 1 355 344 338 323 305 283 278 276 284 289 296 280 290 279 277 276 265 262 264 272 269 264 262 264 270 275 276 274 264 245
218 245 251 242 246 251 235 244 260 272 294 276 295 296 323 341 344 345 343 343 340 326 318 317 315 310 297 287 281 286 289 282 288 296 295 286 278 271 268 266 262 263 258 260 263 271 274 264 253
211 224 238 244 241 235 250 253 271 279 281 274 286 295 316 322 325 325 324 332 326 310 305 307 306 299 298 296 294 292 291 293 295 293 291 289 289 285 275 273 268 262 260 258 260 262 267 263 256
220 231 246 247 246 240 255 262 267 256 267 282 281 291 301 305 306 311 317 318 313 306 305 307 304 295 294 290 292 293 294 294 293 291 290 291 291 290 288 282 275 273 264 256 252 256 252 250 252
225 263 263 252 259 252 246 251 256 266 269 279 285 287 285 288 296 307 307 312 315 304 296 293 285 279 280 292 295 293 290 289 288 288 289 290 287 285 285 284 283 279 269 263 256 250 258 247 236
260 270 277 274 271 264 260 257 259 263 266 274 279 276 278 286 294 296 295 307 305 296 295 293 294 291 290 288 282 279 287 291 292 292 292 290 289 287 286 283 282 279 273 264 259 253 255 261 237
286 281 277 278 278 272 267 269 275 275 274 275 277 281 287 291 293 298 306 307 302 306 303 296 295 296 297 296 293 291 287 282 282 284 286 285 285 284 282 282 279 277 274 268 260 253 253 250 250
280 283 276 280 275 279 276 265 266 267 270 273 277 283 286 288 294 301 304 307 310 310 303 295 294 293 294 294 292 290 289 286 285 284 282 282 282 283 281 280 279 275 272 267 263 254 249 249 243